Starlink 33866

operational
NORAD ID: 63653 Int'l Des: 2025-083 Owner: SPXS Country: US Constellation: starlink
LEOCIRCULAR

About Starlink 33866

Description loading...

Live Position

Loading 3D Globe...

Upcoming Passes

Altitude History

Altitude vs Time

uPlot chart will show altitude changes over time

Two-Line Element Set

1 63653U 25083V 25259.49511553 .00030748 00000-0 11213-2 0 9999
2 63653 43.0032 269.1708 0001599 276.7872 83.2798 15.27608356 23457
Epoch: Sep 16, 2025 • Age: 22 hours

Current Status

Altitude 494.8 km
Velocity 7.62 km/s
Sub-Earth Point -42.35°S, 22.71°E
Launch Date Apr 25, 2025
Age 0.3 years
Type internet

Technical Details

Classification Payload
Mass 575.00 kg
Dry Mass 530.00 kg
Total Mass 575.00 kg
Length 0.30 m
Diameter 4.10 m
Span 29.00 m
Shape Box + pan
Manufacturer SPXS
Bus Type Starlink V2MO
Phase Status In Orbit
Owner/State SPXS/US

Large Constellations

Loading constellations...